[[{"header":{"parameterUnit":"m.s-1","parameterCategory":1,"la1":30.2991,"la2":30.254,"lo1":-89.0895,"lo2":-89.0444,"dy":0.0017,"dx":0.0017,"nx":28,"ny":28,"refTime":"2024-10-05T03:00:00:Z","depth":0,"parameterNumber":2,"parameterNumberName":"U-component_of_WINDS"},"data":[0,0,0,0,0,0,0,0,0,0,0,0,0,0,0,0,0,0,0,0,0,0,0,0,0,0,0,0,0,0,0,0,0,0,0,0,0,0,0,0,0,0,0,0,0,0,0,0,0,0,0,0,0,0,0,0,0,0,-4.2632,-4.2633,0,-4.2685,-4.2686,-4.2687,-4.2589,-4.2586,-4.2583,-4.258,-4.2633,-4.2638,-4.2642,0,0,0,0,0,0,0,0,0,0,0,0,0,-4.2447,-4.2451,-4.2632,-4.2633,-4.2634,-4.2685,-4.2686,-4.2687,-4.259,-4.2586,-4.2582,-4.2578,-4.2632,-4.2637,-4.2642,0,0,0,0,0,0,0,0,0,0,0,0,0,-4.2517,-4.2452,-4.2632,-4.2592,-4.2588,-4.2685,-4.2686,-4.2687,-4.2591,-4.2586,-4.2581,-4.2576,-4.263,-4.2637,-4.2643,-4.2782,0,0,-4.2664,-4.2667,0,0,0,0,0,0,0,0,-4.2513,-4.2524,-4.2597,-4.2594,-4.2591,-4.2626,-4.264,-4.2719,-4.2592,-4.259,-4.258,-4.2574,-4.2635,-4.2641,-4.2661,-4.2784,-4.2787,-4.2664,-4.2668,-4.2671,-4.2673,0,0,0,0,0,0,0,-4.2508,-4.2521,-4.2653,-4.2598,-4.2595,-4.2571,-4.2575,-4.2655,-4.2639,-4.259,-4.2583,-4.259,-4.2632,-4.2655,-4.2662,-4.2788,-4.2664,-4.267,-4.2674,-4.2677,-4.3027,-4.3032,0,0,0,0,0,0,-4.2508,-4.2517,-4.2652,-4.2655,-4.2539,-4.2578,-4.2583,-4.262,-4.2638,-4.2636,-4.2594,-4.2586,-4.2646,-4.2654,-4.2663,-4.2826,-4.2671,-4.2677,-4.2681,-4.3022,-4.3029,-4.3034,0,0,0,0,0,0,-4.2505,-4.2521,-4.2649,-4.2584,-4.2599,-4.2586,-4.2628,-4.2623,-4.2646,-4.2641,-4.2638,-4.2621,-4.2643,-4.2654,-4.2753,-4.2827,-4.268,-4.2686,-4.3016,-4.3024,-4.3031,-4.3154,0,0,0,0,0,0,-4.25,-4.2521,-4.2573,-4.2586,-4.2603,-4.2739,-4.2633,-4.2628,-4.2658,-4.2647,-4.2665,-4.2664,-4.264,-4.2744,-4.276,-4.2833,-4.2692,-4.3009,-4.302,-4.3029,-4.3144,-4.3165,-4.3184,0,0,0,0,0,-4.2494,-4.2605,-4.2576,-4.2593,-4.2668,-4.2743,-4.2752,-4.2723,-4.2664,-4.2717,-4.2714,-4.2663,-4.2817,-4.2755,-4.2772,-4.2849,-4.3004,-4.3017,-4.3028,-4.3134,-4.3161,-4.3184,0,0,0,0,0,0,-4.26,-4.2606,-4.2574,-4.2693,-4.2719,-4.2726,-4.2791,-4.2752,-4.2794,-4.2782,-4.2744,-4.2749,-4.2856,-4.2862,-4.2793,-4.2984,-4.2901,-4.2917,-4.2976,-4.3001,-4.3021,-4.3016,-4.2697,0,0,0,0,0,-4.2638,-4.2699,-4.27,-4.2805,-4.282,-4.2804,-4.2836,-4.2811,-4.2835,-4.2846,-4.285,-4.2876,-4.293,-4.2966,-4.3015,-4.3145,-4.3147,-4.3206,-4.3227,-4.3243,-4.3257,-4.3326,-4.3352,-4.3074,-4.3073,-4.3073,0,0,-4.2716,-4.2726,-4.2767,-4.2827,-4.2844,-4.2907,-4.2814,-4.2885,-4.2931,-4.2856,-4.295,-4.2955,-4.2981,-4.3096,-4.3147,-4.3105,-4.3335,-4.3259,-4.3272,-4.3277,-4.3341,-4.3367,-4.3391,-4.3082,-4.308,-4.3079,0,0,-4.2889,-4.2904,-4.2993,-4.3012,-4.3039,-4.3028,-4.305,-4.3064,-4.3065,-4.3159,-4.3103,-4.3159,-4.3253,-4.3274,-4.3297,-4.3481,-4.3436,-4.3499,-4.3604,-4.3672,-4.3694,-4.3713,-4.3778,-4.3802,-4.3513,-4.3513,-4.3513,0,-4.2982,-4.3076,-4.3044,-4.3119,-4.3147,-4.3083,-4.3173,-4.3193,-4.3235,-4.3256,-4.3209,-4.3326,-4.3339,-4.3458,-4.3503,-4.3524,-4.3547,-4.3495,-4.3693,-4.3712,-4.373,-4.3791,-4.3816,-4.352,-4.3519,-4.3519,-4.3518,0,-4.3188,-4.3255,-4.3323,-4.3366,-4.3402,-4.3484,-4.3465,-4.3505,-4.3478,-4.3473,-4.3569,-4.3583,-4.3635,-4.3662,-4.3636,-4.3778,-4.3751,-4.3699,-4.3614,-4.3764,-4.3821,-4.3844,-4.3531,-4.3528,-4.3526,-4.3524,0,0,-4.3428,-4.3453,-4.3479,-4.3497,-4.3523,-4.3574,-4.3654,-4.3705,-4.374,-4.3772,-4.3837,-4.392,-4.3872,-4.3899,-4.3875,-4.3935,-4.4079,-4.3876,-4.3876,-4.3912,-4.4236,-4.4273,-4.4301,-4.4051,-4.4055,-4.4058,-4.4233,0,-4.36,-4.3737,-4.3711,-4.3845,-4.3906,-4.3847,-4.3917,-4.3941,-4.3938,-4.3989,-4.3986,-4.4045,-4.3979,-4.3994,-4.4051,-4.405,-4.4144,-4.4037,-4.411,-4.4113,-4.4104,-4.4331,-4.4371,-4.4535,-4.4256,-4.426,-4.4262,0,-4.3817,-4.3858,-4.3998,-4.4015,-4.4039,-4.4102,-4.4147,-4.4197,-4.4223,-4.4217,-4.4248,-4.4214,-4.4294,-4.421,-4.4319,-4.4247,-4.4276,-4.428,-4.4286,-4.429,-4.4196,-4.434,-4.4587,-4.4611,-4.4297,-4.4294,-4.4292,0,-4.3976,-4.4066,-4.4162,-4.418,-4.4202,-4.4248,-4.426,-4.4281,-4.4314,-4.4353,-4.4374,-4.4423,-4.4449,-4.4488,-4.4467,-4.4408,-4.4581,-4.4495,-4.4577,-4.4578,-4.4614,-4.4612,-4.4868,-4.4636,-4.4636,-4.4635,-4.4635,0,-4.4169,-4.4257,-4.4233,-4.4292,-4.4389,-4.4359,-4.4456,-4.4461,-4.4481,-4.4539,-4.4493,-4.4549,-4.4519,-4.4573,-4.4559,-4.4651,-4.4664,-4.4661,-4.4655,-4.4664,-4.4664,-4.4681,-4.4668,-4.4642,-4.4641,-4.4639,-4.4638,0,-4.4362,-4.435,-4.445,-4.4464,-4.447,-4.4541,-4.4553,-4.4608,-4.4603,-4.4677,-4.4693,-4.4685,-4.4747,-4.4731,-4.4798,-4.4788,-4.4905,-4.4886,-4.4896,-4.489,-4.4974,-4.4966,-4.5248,-4.5283,-4.503,-4.5033,-4.5035,0,-4.4485,-4.4551,-4.4573,-4.4609,-4.4625,-4.4683,-4.4717,-4.4691,-4.4728,-4.4764,-4.4814,-4.4872,-4.4916,-4.5017,-4.5017,-4.5068,-4.5049,-4.5145,-4.5056,-4.5063,-4.5049,-4.5045,-4.5051,-4.5161,-4.5164,-4.5167,-4.5169,0,-4.4704,-4.4696,-4.4745,-4.4794,-4.4835,-4.4872,-4.4904,-4.4937,-4.4914,-4.4958,-4.502,-4.5055,-4.5124,-4.5181,-4.5229,-4.524,-4.5201,-4.5197,-4.5219,-4.5227,-4.523,-4.5228,-4.4942,-4.519,-4.5188,-4.5186,-4.5185,-4.5184,-4.4865,-4.4921,-4.4945,-4.5003,-4.5025,-4.5057,-4.5109,-4.5112,-4.5163,-4.5217,-4.52,-4.5271,-4.5297,-4.5357,-4.5375,-4.543,-4.5394,-4.5426,-4.5433,-4.5441,-4.5451,-4.5223,-4.5439,-4.5438,-4.5438,-4.5437,-4.5437,0,-4.508,-4.5094,-4.5147,-4.5194,-4.524,-4.52,-4.5235,-4.5275,-4.5339,-4.5367,-4.5412,-4.5484,-4.554,-4.5546,-4.5599,-4.5642,-4.5626,-4.5657,-4.5653,-4.5656,-4.5481,-4.5456,-4.567,-4.567,-4.567,-4.567,-4.5669,-4.5669,-4.5197,-4.529,-4.5285,-4.5389,-4.5402,-4.5472,-4.5495,-4.5524,-4.5546,-4.5629,-4.5676,-4.5679,-4.5699,-4.5753,-4.5803,-4.5803,-4.5824,-4.5862,-4.5856,-4.5691,-4.5668,-4.5646,-4.5623,-4.5868,-4.5868,-4.6026,-4.6027,-4.6028]},{"header":{"parameterUnit":"m.s-1","parameterCategory":1,"la1":30.2991,"la2":30.254,"lo1":-89.0895,"lo2":-89.0444,"dy":0.0017,"dx":0.0017,"nx":28,"ny":28,"refTime":"2024-10-05T03:00:00:Z","depth":0,"parameterNumber":3,"parameterNumberName":"V-component_of_WINDS"},"data":[0,0,0,0,0,0,0,0,0,0,0,0,0,0,0,0,0,0,0,0,0,0,0,0,0,0,0,0,0,0,0,0,0,0,0,0,0,0,0,0,0,0,0,0,0,0,0,0,0,0,0,0,0,0,0,0,0,0,0.4013,0.4012,0,0.3929,0.3928,0.3928,0.3921,0.3922,0.3923,0.3924,0.3829,0.3826,0.3822,0,0,0,0,0,0,0,0,0,0,0,0,0,0.416,0.4158,0.4013,0.4012,0.4011,0.393,0.3928,0.3927,0.3921,0.3922,0.3923,0.3925,0.383,0.3826,0.3822,0,0,0,0,0,0,0,0,0,0,0,0,0,0.4088,0.4157,0.4013,0.3998,0.3996,0.393,0.3928,0.3927,0.3921,0.3922,0.3924,0.3925,0.3831,0.3826,0.3821,0.3761,0,0,0.3806,0.3804,0,0,0,0,0,0,0,0,0.4092,0.4083,0.4002,0.3999,0.3997,0.3938,0.3945,0.3871,0.3921,0.3949,0.3924,0.3926,0.3863,0.3856,0.3837,0.3757,0.3753,0.3805,0.3802,0.38,0.3799,0,0,0,0,0,0,0,0.4097,0.4086,0.398,0.4,0.3997,0.3993,0.3985,0.3931,0.3899,0.3947,0.3946,0.3937,0.3862,0.3841,0.3834,0.3751,0.3805,0.3801,0.3798,0.3796,0.3619,0.3617,0,0,0,0,0,0,0.4106,0.4091,0.3982,0.3977,0.4049,0.399,0.398,0.3955,0.39,0.3893,0.3936,0.3937,0.385,0.384,0.3831,0.3758,0.38,0.3795,0.3792,0.362,0.3618,0.3617,0,0,0,0,0,0,0.4109,0.4097,0.3986,0.4034,0.4019,0.3986,0.3957,0.3952,0.3932,0.3891,0.3885,0.3921,0.385,0.3838,0.378,0.3754,0.3793,0.3788,0.3622,0.362,0.3618,0.361,0,0,0,0,0,0,0.4114,0.4098,0.4076,0.4033,0.4017,0.3938,0.3956,0.395,0.3924,0.3925,0.3876,0.3869,0.385,0.3787,0.3774,0.3748,0.3784,0.3624,0.3621,0.3618,0.3612,0.3608,0.3604,0,0,0,0,0,0.4119,0.4075,0.4075,0.4062,0.399,0.3937,0.3927,0.3909,0.3922,0.3899,0.3873,0.387,0.3759,0.3781,0.3767,0.3738,0.3626,0.3622,0.3619,0.3614,0.3608,0.3604,0,0,0,0,0,0,0.4112,0.4069,0.4069,0.401,0.3978,0.3936,0.3906,0.3903,0.3864,0.3866,0.3843,0.3832,0.3774,0.375,0.3775,0.3677,0.3694,0.3687,0.3695,0.3689,0.3685,0.3692,0.378,0,0,0,0,0,0.4105,0.4068,0.4031,0.3983,0.3967,0.394,0.3916,0.3906,0.3869,0.3854,0.3824,0.3787,0.3744,0.3715,0.3673,0.3609,0.3598,0.3582,0.3578,0.3575,0.3569,0.3533,0.3526,0.3605,0.3605,0.3605,0,0,0.4087,0.4059,0.4036,0.3981,0.3954,0.3915,0.3928,0.3885,0.3854,0.3847,0.3791,0.3767,0.3724,0.3663,0.3634,0.3641,0.3545,0.357,0.3568,0.3563,0.3529,0.3522,0.3515,0.3602,0.3603,0.3603,0,0,0.4035,0.401,0.3968,0.3942,0.3904,0.3886,0.3876,0.3835,0.3821,0.3765,0.3759,0.3721,0.3647,0.3617,0.3592,0.3531,0.3526,0.3517,0.3494,0.346,0.3454,0.3448,0.3426,0.3419,0.3512,0.3512,0.3512,0,0.4016,0.396,0.3946,0.3904,0.388,0.3875,0.3831,0.3806,0.3754,0.3736,0.3745,0.3654,0.3624,0.3556,0.3542,0.3521,0.3508,0.3522,0.3456,0.3451,0.3445,0.3424,0.3416,0.3511,0.3511,0.3511,0.3511,0,0.394,0.39,0.387,0.3825,0.3797,0.3754,0.3732,0.3705,0.3697,0.3678,0.3621,0.3586,0.3538,0.3521,0.3511,0.3452,0.3457,0.3462,0.3477,0.3437,0.3417,0.3408,0.351,0.351,0.351,0.3511,0,0,0.3878,0.3829,0.3818,0.3797,0.3755,0.3723,0.368,0.3636,0.3613,0.3577,0.354,0.3479,0.3483,0.3455,0.3442,0.3413,0.3367,0.3421,0.3419,0.3412,0.3299,0.3296,0.3286,0.3365,0.3363,0.3362,0.3302,0,0.3821,0.3748,0.3736,0.367,0.3633,0.363,0.3592,0.3561,0.3542,0.3506,0.3484,0.3441,0.3451,0.3434,0.3405,0.3379,0.3344,0.3383,0.3327,0.3325,0.3338,0.3276,0.3272,0.3217,0.3294,0.3293,0.3292,0,0.3745,0.3712,0.3644,0.3609,0.3593,0.356,0.3519,0.3486,0.345,0.3438,0.3408,0.34,0.3353,0.3372,0.3306,0.3333,0.3309,0.3293,0.3291,0.3284,0.3306,0.3267,0.3199,0.3191,0.3279,0.328,0.3281,0,0.3707,0.3646,0.3598,0.358,0.3538,0.3515,0.3495,0.3462,0.3437,0.34,0.3383,0.334,0.3316,0.3283,0.3262,0.3278,0.3197,0.3215,0.3185,0.3185,0.3167,0.3168,0.3094,0.3153,0.3153,0.3153,0.3153,0,0.3645,0.3603,0.3581,0.3551,0.3504,0.3489,0.3443,0.3423,0.3394,0.3358,0.3351,0.3317,0.3293,0.3255,0.3238,0.3186,0.3175,0.3163,0.3159,0.3163,0.3165,0.3147,0.315,0.3151,0.3151,0.3152,0.3152,0,0.3594,0.3578,0.3525,0.3491,0.3481,0.3448,0.3418,0.3387,0.337,0.3326,0.3314,0.3285,0.3241,0.3218,0.3161,0.315,0.3091,0.3089,0.3104,0.3102,0.3074,0.3077,0.2985,0.2972,0.304,0.3039,0.3039,0,0.3555,0.3524,0.3488,0.3466,0.3447,0.341,0.3386,0.337,0.3345,0.3303,0.3278,0.3234,0.3198,0.3127,0.3099,0.3056,0.3052,0.3023,0.3045,0.3051,0.3051,0.3053,0.305,0.3019,0.3018,0.3018,0.3017,0,0.3487,0.3482,0.3448,0.3413,0.3385,0.3355,0.3325,0.3306,0.3285,0.3256,0.3213,0.3186,0.313,0.3086,0.3041,0.3018,0.3013,0.3011,0.3002,0.3005,0.3015,0.3009,0.3093,0.3013,0.3013,0.3013,0.3014,0.3014,0.3441,0.3413,0.3385,0.3348,0.3325,0.3298,0.3269,0.325,0.3214,0.317,0.3163,0.3116,0.3082,0.3022,0.2998,0.296,0.2965,0.2952,0.2948,0.2945,0.2944,0.3023,0.2951,0.2951,0.2952,0.2952,0.2952,0,0.3372,0.3355,0.3322,0.3282,0.3253,0.3256,0.3224,0.3198,0.3159,0.3129,0.3095,0.3045,0.3003,0.2974,0.293,0.2905,0.2902,0.2894,0.2895,0.289,0.2941,0.2954,0.2898,0.2898,0.2898,0.2898,0.2898,0.2898,0.3333,0.3288,0.3279,0.3221,0.3202,0.316,0.3142,0.3116,0.3092,0.3039,0.3005,0.2988,0.2957,0.2912,0.2873,0.2865,0.2849,0.2841,0.2833,0.2881,0.2886,0.2892,0.2903,0.2838,0.2838,0.2785,0.2784,0.2784]}]]